W1LH-13 Weather Reports


time (UTC)temp
C
wind
direction
speed
KPH
gust
KPH
rain 1hr
cm
rain 24hr
cm
rain mn
cm
humidity
%
barometer
mb
20260504231839 12 302 6.4 14.5 0.00 0.10 0.00 71 1005.2
20260504231323 13 300 6.4 14.5 0.00 0.10 0.00 71 1005.1
20260504230848 13 292 8.0 17.7 0.00 0.10 0.00 70 1005.0
20260504230333 13 292 8.0 19.3 0.00 0.10 0.00 70 1004.9
20260504225821 13 275 11.3 19.3 0.00 0.13 0.00 69 1004.8
20260504225347 13 292 9.7 16.1 0.00 0.13 0.00 68 1004.6
20260504224831 13 286 8.0 17.7 0.00 0.13 0.00 68 1004.6
20260504224335 13 286 526.3 526.3 0.00 0.00 0.00 68 1004.7
20260504223841 13 303 14.5 22.5 0.00 0.13 0.00 67 1004.6
20260504223325 13 296 11.3 17.7 0.00 0.13 0.00 66 1004.5
20260504222830 14 298 9.7 16.1 0.00 0.13 0.00 66 1004.5
20260504222334 14 290 9.7 17.7 0.00 0.13 0.00 67 1004.4
20260504221838 14 303 11.3 17.7 0.00 0.13 0.00 67 1004.3
20260504221322 14 274 8.0 17.7 0.00 0.13 0.00 66 1004.2
20260504220826 14 310 11.3 19.3 0.00 0.13 0.00 66 1004.2
20260504220331 14 293 11.3 20.9 0.00 0.13 0.00 66 1004.1
20260504215820 14 281 12.9 24.1 0.00 0.18 0.00 65 1004.1
20260504215325 14 280 14.5 24.1 0.00 0.18 0.00 64 1003.9
20260504214851 14 281 12.9 22.5 0.00 0.18 0.00 64 1003.9
20260504214335 14 298 12.9 27.4 0.00 0.18 0.00 64 1003.8
20260504213838 15 260 16.1 27.4 0.00 0.18 0.00 64 1003.8
20260504213324 15 265 11.3 19.3 0.00 0.18 0.00 64 1003.8
20260504212849 15 281 11.3 19.3 0.00 0.18 0.00 63 1003.7
20260504212333 15 315 9.7 14.5 0.00 0.18 0.00 63 1003.6
20260504211836 15 271 9.7 16.1 0.00 0.18 0.00 63 1003.6
20260504211341 15 288 8.0 16.1 0.00 0.18 0.00 63 1003.5
20260504210823 15 292 11.3 14.5 0.00 0.18 0.00 63 1003.6
20260504210327 15 302 9.7 16.1 0.00 0.18 0.00 63 1003.6
20260504205835 14 290 4.8 12.9 0.00 0.23 0.00 64 1003.5
20260504205340 14 301 6.4 19.3 0.00 0.23 0.00 64 1003.5
20260504204843 14 254 11.3 25.7 0.00 0.23 0.00 63 1003.4
20260504204347 14 288 9.7 25.7 0.00 0.23 0.00 63 1003.5
20260504203827 14 253 8.0 17.7 0.00 0.23 0.00 64 1003.6
20260504203331 14 292 11.3 24.1 0.00 0.23 0.00 64 1003.5
20260504202836 14 282 12.9 24.1 0.00 0.23 0.00 64 1003.6
20260504202320 14 261 11.3 24.1 0.00 0.23 0.00 64 1003.6
20260504201824 14 304 12.9 25.7 0.00 0.23 0.00 64 1003.5
20260504201330 14 296 16.1 25.7 0.00 0.23 0.00 63 1003.5
20260504200834 14 271 16.1 25.7 0.00 0.23 0.00 64 1003.5
20260504200358 14 305 8.0 19.3 0.00 0.23 0.00 66 1003.6
20260504195822 14 271 9.7 19.3 0.00 0.30 0.00 66 1003.5
20260504195331 14 306 11.3 19.3 0.00 0.30 0.00 65 1003.4
20260504194835 14 276 9.7 22.5 0.00 0.30 0.00 66 1003.5
20260504194340 14 259 11.3 22.5 0.00 0.30 0.00 64 1003.4
20260504193823 15 284 4.8 17.7 0.00 0.30 0.00 66 1003.3
20260504193328 14 283 6.4 22.5 0.00 0.30 0.00 66 1003.4
20260504192833 13 271 11.3 24.1 0.00 0.30 0.00 68 1003.5
20260504192337 13 302 12.9 22.5 0.00 0.30 0.00 70 1003.6
20260504191821 13 281 14.5 25.7 0.00 0.30 0.00 70 1003.7
20260504191327 13 298 14.5 25.7 0.00 0.30 0.00 70 1003.7
20260504190832 13 300 16.1 25.7 0.00 0.30 0.00 72 1003.8
20260504190336 13 293 16.1 24.1 0.00 0.30 0.00 73 1003.8
20260504185824 12 269 14.5 25.7 0.00 0.46 0.00 74 1003.9
20260504185327 12 280 9.7 25.7 0.00 0.46 0.00 75 1003.9
20260504184852 12 259 11.3 19.3 0.00 0.46 0.00 75 1003.9
20260504184335 12 258 12.9 19.3 0.00 0.46 0.00 74 1003.9
20260504183820 12 262 9.7 24.1 0.00 0.46 0.00 73 1004.0
20260504183324 12 298 9.7 25.7 0.00 0.46 0.00 72 1004.0
20260504182830 12 259 16.1 25.7 0.00 0.46 0.00 70 1004.0
20260504182334 12 281 14.5 25.7 0.00 0.46 0.00 69 1003.9
20260504181838 13 307 16.1 29.0 0.00 0.46 0.00 66 1003.8
20260504181322 13 298 19.3 29.0 0.00 0.46 0.00 62 1003.6
20260504180827 13 263 11.3 27.4 0.00 0.46 0.00 58 1003.6
20260504180336 13 284 17.7 27.4 0.00 0.46 0.00 56 1003.3
20260504175820 14 289 11.3 32.2 0.00 0.76 0.00 56 1003.0
20260504175325 14 222 17.7 32.2 0.00 0.76 0.00 53 1002.9
20260504174829 15 301 14.5 29.0 0.00 0.76 0.00 51 1002.7
20260504174353 15 232 17.7 29.0 0.00 0.76 0.00 47 1002.6
20260504173838 15 236 8.0 27.4 0.00 0.76 0.00 47 1002.6
20260504173321 16 270 12.9 27.4 0.00 0.76 0.00 45 1002.5
20260504172846 16 257 12.9 27.4 0.00 0.76 0.00 44 1002.4
20260504172330 16 273 9.7 27.4 0.00 0.76 0.00 44 1002.4
20260504171834 17 283 11.3 29.0 0.00 0.76 0.00 40 1002.4
20260504171338 17 237 12.9 22.5 0.00 0.76 0.00 43 1002.5
20260504170823 16 275 8.0 22.5 0.00 0.76 0.00 44 1002.6
20260504170331 16 292 9.7 30.6 0.00 0.76 0.00 42 1002.6
20260504160326 16 286 9.7 27.4 0.00 0.91 0.00 49 1003.5
20260504150853 13 277 14.5 22.5 0.00 0.97 0.00 50 1004.3
20260504150336 13 226 9.7 24.1 0.00 0.97 0.00 51 1004.5
20260504141325 12 342 11.3 25.7 0.00 1.02 0.00 53 1005.0
20260504140834 12 230 12.9 24.1 0.00 1.02 0.00 54 1005.0
20260504140339 11 304 14.5 32.2 0.00 1.02 0.00 53 1005.0
20260504130338 10 269 16.1 25.7 0.00 1.14 0.00 59 1005.5
20260504110328 5 284 11.3 16.1 0.00 1.37 0.00 82 1004.8
20260504100324 2 259 9.7 16.1 0.00 1.45 0.00 88 1004.1
20260504081826 3 293 11.3 17.7 0.00 1.70 0.00 89 1002.9
20260504081330 3 293 9.7 12.9 0.00 1.70 0.00 89 1003.0
20260504080834 3 289 8.0 14.5 0.00 1.70 0.00 89 1002.8
20260504080339 3 286 8.0 14.5 0.00 1.70 0.00 89 1002.7
20260504070353 4 277 9.7 16.1 0.00 1.83 0.00 89 1002.3
20260504050323 6 301 9.7 20.9 0.00 1.85 0.00 91 1001.3
20260504045847 6 272 12.9 19.3 0.00 1.85 0.00 91 1001.2
20260504045331 6 286 12.9 20.9 0.00 1.85 0.00 91 1001.1
20260504044835 6 286 11.3 20.9 0.00 1.85 0.00 91 1001.1
20260504044400 6 298 14.5 27.4 0.00 1.85 0.00 91 1001.0
20260504043823 6 279 12.9 24.1 0.00 1.85 0.00 92 1001.1
20260504043328 6 294 14.5 24.1 0.00 1.85 0.00 92 1001.0
20260504042852 6 264 12.9 24.1 0.00 1.85 0.00 92 1001.0
20260504042336 6 242 12.9 20.9 0.00 1.85 0.00 92 1000.9
20260504041840 6 280 12.9 20.9 0.00 1.85 0.00 92 1000.8
20260504041324 6 284 12.9 20.9 0.00 1.85 0.00 92 1000.8
20260504040847 6 289 12.9 22.5 0.00 1.85 0.00 92 1000.7
20260504040335 6 254 14.5 22.5 0.00 1.85 0.00 92 1000.6
20260504035859 6 296 14.5 29.0 0.00 1.85 1.85 92 1000.7
20260504035323 6 306 17.7 29.0 0.00 1.85 1.85 92 1000.6
20260504034827 6 271 14.5 22.5 0.00 1.85 1.85 92 1000.5
20260504034332 6 282 12.9 25.7 0.00 1.85 1.85 92 1000.5
20260504033835 6 264 14.5 25.7 0.00 1.85 1.85 92 1000.5
20260504033320 6 296 11.3 24.1 0.00 1.85 1.85 92 1000.4
20260504032846 6 302 12.9 22.5 0.00 1.85 1.85 92 1000.4
20260504032328 6 279 14.5 20.9 0.00 1.85 1.85 92 1000.3
20260504031833 6 284 12.9 19.3 0.00 1.85 1.85 92 1000.2
20260504031358 6 284 11.3 20.9 0.00 1.85 1.85 92 1000.2
20260504030822 6 275 12.9 20.9 0.03 1.85 1.85 92 1000.2
20260504030327 6 289 12.9 24.1 0.03 1.85 1.85 92 1000.1
20260504025836 6 298 11.3 24.1 0.03 1.85 1.85 92 1000.1
20260504025339 6 297 11.3 22.5 0.03 1.85 1.85 92 1000.0
20260504024825 6 298 14.5 22.5 0.03 1.85 1.85 92 999.9
20260504024328 6 265 12.9 20.9 0.03 1.85 1.85 92 999.9
20260504023833 6 245 12.9 20.9 0.03 1.85 1.85 92 999.8
20260504023336 6 288 9.7 25.7 0.03 1.85 1.85 92 999.8
20260504022900 6 298 11.3 25.7 0.03 1.85 1.85 92 999.8
20260504022323 6 304 12.9 24.1 0.05 1.85 1.85 92 999.8
20260504021847 6 300 14.5 24.1 0.05 1.85 1.85 92 999.8
20260504021329 6 281 12.9 22.5 0.05 1.85 1.85 92 999.9
20260504020834 6 313 11.3 22.5 0.03 1.83 1.83 92 999.9
20260504020338 6 278 12.9 22.5 0.03 1.83 1.83 92 999.9
20260504015827 6 272 12.9 22.5 0.03 1.83 1.83 92 999.9
20260504015352 6 306 11.3 27.4 0.03 1.83 1.83 92 999.9
20260504014855 6 287 11.3 27.4 0.03 1.83 1.83 92 999.9
20260504014338 6 279 11.3 20.9 0.03 1.83 1.83 92 999.8
20260504013824 6 105 11.3 27.4 0.03 1.83 1.83 93 999.7
20260504013347 6 291 14.5 19.3 0.03 1.83 1.83 93 999.6
20260504012831 6 284 12.9 22.5 0.05 1.83 1.83 93 999.7
20260504012337 6 281 14.5 22.5 0.03 1.80 1.80 93 999.7
20260504011820 6 277 11.3 24.1 0.03 1.80 1.80 93 999.6
20260504011325 6 331 12.9 24.1 0.03 1.80 1.80 93 999.6
20260504010829 6 299 14.5 24.1 0.03 1.80 1.80 93 999.4
20260504010334 6 278 11.3 24.1 0.03 1.80 1.80 93 999.4
20260504005857 6 294 11.3 24.1 0.03 1.80 1.80 93 999.4
20260504005321 6 274 14.5 22.5 0.03 1.80 1.80 92 999.3
20260504004828 6 256 11.3 22.5 0.03 1.80 1.80 92 999.2
20260504004334 6 276 11.3 22.5 0.03 1.80 1.80 92 999.1
20260504003839 6 251 9.7 24.1 0.03 1.80 1.80 92 999.0
20260504003323 6 286 12.9 22.5 0.05 1.80 1.80 92 999.0
20260504002826 6 275 14.5 24.1 0.03 1.78 1.78 92 998.9
20260504002352 6 300 12.9 24.1 0.03 1.78 1.78 92 998.8
20260504001836 6 266 11.3 20.9 0.03 1.78 1.78 92 998.8
20260504001320 6 265 12.9 24.1 0.03 1.78 1.78 92 998.8
20260504000845 6 295 11.3 25.7 0.03 1.78 1.78 92 998.8
20260504000329 6 286 14.5 25.7 0.03 1.78 1.78 92 998.7
20260503235834 6 248 12.9 25.7 0.03 1.78 1.78 92 998.7
20260503235338 6 291 14.5 22.5 0.03 1.78 1.78 92 998.6
20260503234843 6 272 14.5 27.4 0.03 1.78 1.78 92 998.5
20260503234330 6 271 12.9 27.4 0.03 1.78 1.78 92 998.4
20260503233835 6 292 11.3 25.7 0.03 1.78 1.78 92 998.3
20260503233340 6 275 14.5 25.7 0.00 1.75 1.75 92 998.3
20260503232824 6 260 12.9 20.9 0.00 1.75 1.75 92 998.3
20260503232328 6 279 11.3 22.5 0.00 1.75 1.75 92 998.3